Overview Statistics Trail Chart Weather Telemetry Raw packets
 

This is the latest recevied weather packets stored in our database for station/object KN1OBI-13. If no packets are shown the sender has not sent any weather packets the latest 10 day(s).

<< 16 17 18 19 20 21 22 >>
Time Temp. Humidity Pressure Rain* Wind** Luminosity Snow
1788365192 20.56° C 83% 1001.1 hPa 0 mm - - -
1788364592 21.11° C 83% 1001.1 hPa 0 mm - - -
1788363992 21.11° C 85% 1001.3 hPa 0 mm - - -
1788363392 20.56° C 87% 1001.3 hPa 0 mm - - -
1788362792 20.56° C 89% 1001.5 hPa 0 mm - - -
1788362192 20.56° C 90% 1001.6 hPa 0 mm - - -
1788361592 20° C 91% 1001.3 hPa 0 mm - - -
1788360992 20° C 93% 1001.5 hPa 0 mm - - -
1788360392 20° C 95% 1001.7 hPa 0 mm - - -
1788359792 19.44° C 96% 1001.8 hPa 0 mm - - -
1788359192 18.89° C 98% 1001.6 hPa 0 mm - - -
1788358592 18.33° C 98% 1001.6 hPa 0 mm - - -
1788357992 18.33° C 99% 1001.4 hPa 0 mm - - -
1788357392 17.78° C 99% 1001.3 hPa 0 mm - - -
1788356792 17.78° C 99% 1001.3 hPa 0 mm - - -
1788356192 17.78° C 99% 1001 hPa 0 mm - - -
1788355592 17.22° C 99% 1001 hPa 0 mm - - -
1788354992 17.22° C 99% 1001.1 hPa 0 mm - - -
1788354392 17.22° C 99% 1000.9 hPa 0 mm - - -
1788353792 16.67° C 99% 1001.2 hPa 0 mm - - -
1788353192 16.67° C 99% 1001.2 hPa 0 mm - - -
1788352592 16.67° C 99% 1001.1 hPa 0 mm - - -
1788351992 16.11° C 99% 1001.3 hPa 0 mm - - -
1788351392 16.11° C 99% 1001.4 hPa 0 mm - - -
1788350792 16.11° C 99% 1001.3 hPa 0 mm - - -

* Rain latest hour (hover to see other rain measurements)
** Current wind speed in m/s (hover to see current wind gust speed)